ICE114 BGGH-BIKF

Flight info

Callsign ICE114
Flight time 1h 51m
Altitude 35000
Route EVULO1A EVULO DCT DEVNU DCT GOKIK DCT GIRUG GIRUG4N
Aircraft B38M/M-SDE1FGHILORVWXY/HB1

Departure

Time 2026-05-08 02:37
Airport Nuuk International Airport (BGGH)

Arrival

Time 2026-05-08 04:28
Airport Keflavik International Airport (BIKF)
Time Latitude Longitude Altitude Speed Heading
2026-05-08 02:20 64.19125 -51.67517 282 ft 0 kts 253°
2026-05-08 02:29 64.19125 -51.67515 282 ft 2 kts 253°
2026-05-08 02:29 64.19132 -51.67461 285 ft 4 kts 253°
2026-05-08 02:29 64.19135 -51.67442 284 ft 1 kts 253°
2026-05-08 02:33 64.19134 -51.67444 287 ft 1 kts 253°
2026-05-08 02:33 64.19129 -51.67457 284 ft 3 kts 217°
2026-05-08 02:33 64.19074 -51.67518 282 ft 15 kts 221°
2026-05-08 02:33 64.19083 -51.67753 282 ft 18 kts 277°
2026-05-08 02:34 64.19009 -51.67878 282 ft 15 kts 195°
2026-05-08 02:34 64.18917 -51.68029 282 ft 21 kts 209°
2026-05-08 02:34 64.18736 -51.68160 276 ft 33 kts 194°
2026-05-08 02:34 64.18503 -51.68327 271 ft 36 kts 199°
2026-05-08 02:35 64.18260 -51.68529 258 ft 30 kts 178°
2026-05-08 02:35 64.18203 -51.68535 257 ft 0 kts 241°
2026-05-08 02:35 64.18222 -51.68568 258 ft 11 kts 346°
2026-05-08 02:35 64.18239 -51.68555 258 ft 0 kts 20°
2026-05-08 02:37 64.18310 -51.68495 261 ft 43 kts 19°
2026-05-08 02:37 64.18853 -51.68100 280 ft 120 kts 18°
2026-05-08 02:37 64.19814 -51.67383 471 ft 165 kts 19°
2026-05-08 02:37 64.20947 -51.66597 1359 ft 173 kts 15°
2026-05-08 02:38 64.22162 -51.66467 2273 ft 180 kts 352°
2026-05-08 02:38 64.23425 -51.67657 2653 ft 220 kts 320°
2026-05-08 02:38 64.24173 -51.70927 2878 ft 261 kts 277°
2026-05-08 02:38 64.23797 -51.75195 3352 ft 277 kts 234°
2026-05-08 02:39 64.22423 -51.77888 5098 ft 250 kts 199°
2026-05-08 02:39 64.20767 -51.78368 6510 ft 241 kts 171°
2026-05-08 02:39 64.19114 -51.77520 7491 ft 247 kts 170°
2026-05-08 02:39 64.17386 -51.77022 8505 ft 251 kts 174°
2026-05-08 02:40 64.15626 -51.76737 9519 ft 257 kts 177°
2026-05-08 02:40 64.13806 -51.76579 10363 ft 266 kts 174°
2026-05-08 02:40 64.12008 -51.75130 10886 ft 288 kts 150°
2026-05-08 02:40 64.10268 -51.72617 11439 ft 304 kts 152°
2026-05-08 02:41 64.08414 -51.70078 12089 ft 316 kts 152°
2026-05-08 02:41 64.06588 -51.67218 12940 ft 324 kts 140°
2026-05-08 02:41 64.05275 -51.62939 13786 ft 340 kts 117°
2026-05-08 02:41 64.04760 -51.57576 14497 ft 355 kts 94°
2026-05-08 02:42 64.05168 -51.51934 15245 ft 367 kts 75°
2026-05-08 02:42 64.05927 -51.46315 15920 ft 373 kts 77°
2026-05-08 02:42 64.06651 -51.40593 16603 ft 377 kts 78°
2026-05-08 02:42 64.07377 -51.34790 17279 ft 382 kts 77°
2026-05-08 02:43 64.08103 -51.28912 17937 ft 388 kts 77°
2026-05-08 02:43 64.08841 -51.22922 18533 ft 394 kts 78°
2026-05-08 02:43 64.09722 -51.16955 19074 ft 401 kts 65°
2026-05-08 02:43 64.11144 -51.11427 19675 ft 406 kts 61°
2026-05-08 02:44 64.12606 -51.05843 20199 ft 411 kts 61°
2026-05-08 02:44 64.14086 -51.00222 20756 ft 414 kts 61°
2026-05-08 02:44 64.15584 -50.94537 21324 ft 419 kts 61°
2026-05-08 02:44 64.17093 -50.88805 21848 ft 423 kts 61°
2026-05-08 02:45 64.18619 -50.82992 22410 ft 427 kts 61°
2026-05-08 02:45 64.20154 -50.77133 22937 ft 431 kts 61°
2026-05-08 02:45 64.21683 -50.71285 23449 ft 434 kts 61°
2026-05-08 02:45 64.23242 -50.65304 23930 ft 438 kts 61°
2026-05-08 02:46 64.24831 -50.59190 24376 ft 442 kts 61°
2026-05-08 02:46 64.26388 -50.53184 24807 ft 444 kts 61°
2026-05-08 02:46 64.27972 -50.47056 25229 ft 447 kts 61°
2026-05-08 02:46 64.29589 -50.40781 25607 ft 451 kts 61°
2026-05-08 02:47 64.31173 -50.34619 25943 ft 455 kts 61°
2026-05-08 02:47 64.32806 -50.28248 26405 ft 457 kts 61°
2026-05-08 02:47 64.34406 -50.21987 26788 ft 460 kts 60°
2026-05-08 02:47 64.36033 -50.15607 27187 ft 462 kts 60°
2026-05-08 02:48 64.37680 -50.09081 27608 ft 465 kts 63°
2026-05-08 02:48 64.38818 -50.02248 28000 ft 461 kts 80°
2026-05-08 02:48 64.39512 -49.95003 28331 ft 464 kts 80°
2026-05-08 02:48 64.40222 -49.87692 28667 ft 468 kts 80°
2026-05-08 02:49 64.40915 -49.80306 28956 ft 472 kts 81°
2026-05-08 02:49 64.41600 -49.72863 29340 ft 474 kts 81°
2026-05-08 02:49 64.42280 -49.65387 29689 ft 477 kts 81°
2026-05-08 02:49 64.42959 -49.57871 30058 ft 479 kts 81°
2026-05-08 02:50 64.43641 -49.50277 30368 ft 482 kts 81°
2026-05-08 02:50 64.44320 -49.42672 30674 ft 484 kts 81°
2026-05-08 02:50 64.44997 -49.35032 30989 ft 485 kts 81°
2026-05-08 02:50 64.45673 -49.27355 31285 ft 487 kts 81°
2026-05-08 02:51 64.46348 -49.19645 31578 ft 489 kts 81°
2026-05-08 02:51 64.47021 -49.11904 31880 ft 491 kts 81°
2026-05-08 02:51 64.47693 -49.04128 32178 ft 493 kts 81°
2026-05-08 02:51 64.48364 -48.96315 32422 ft 495 kts 81°
2026-05-08 02:52 64.49033 -48.88468 32722 ft 496 kts 81°
2026-05-08 02:52 64.49699 -48.80596 32987 ft 499 kts 81°
2026-05-08 02:52 64.50365 -48.72680 33262 ft 500 kts 81°
2026-05-08 02:52 64.51027 -48.64754 33564 ft 501 kts 81°
2026-05-08 02:53 64.51686 -48.56812 33935 ft 500 kts 81°
2026-05-08 02:53 64.52340 -48.48872 34300 ft 499 kts 81°
2026-05-08 02:53 64.52986 -48.40966 34629 ft 498 kts 81°
2026-05-08 02:53 64.53628 -48.33069 34968 ft 497 kts 81°
2026-05-08 02:54 64.54264 -48.25178 35150 ft 497 kts 81°
2026-05-08 02:54 64.54894 -48.17303 35152 ft 494 kts 81°
2026-05-08 02:54 64.56135 -48.01639 35146 ft 493 kts 81°
2026-05-08 02:55 64.57971 -47.78040 35150 ft 495 kts 81°
2026-05-08 02:56 64.59178 -47.62238 35115 ft 495 kts 81°
2026-05-08 02:56 64.60364 -47.46481 35153 ft 494 kts 81°
2026-05-08 02:57 64.61525 -47.30809 35161 ft 494 kts 81°
2026-05-08 02:57 64.62677 -47.15027 35159 ft 494 kts 81°
2026-05-08 02:58 64.63812 -46.99245 35193 ft 494 kts 81°
2026-05-08 02:58 64.64933 -46.83400 35177 ft 496 kts 81°
2026-05-08 02:59 64.66039 -46.67508 35175 ft 496 kts 81°
2026-05-08 02:59 64.67128 -46.51606 35184 ft 496 kts 81°
2026-05-08 03:00 64.68200 -46.35691 35181 ft 496 kts 81°
2026-05-08 03:00 64.69255 -46.19760 35189 ft 495 kts 81°
2026-05-08 03:01 64.70291 -46.03845 35193 ft 495 kts 82°
2026-05-08 03:01 64.71310 -45.87917 35192 ft 495 kts 82°
2026-05-08 03:02 64.72310 -45.72006 35194 ft 495 kts 82°
2026-05-08 03:02 64.73294 -45.56067 35197 ft 495 kts 82°
2026-05-08 03:03 64.74262 -45.40106 35207 ft 495 kts 82°
2026-05-08 03:03 64.75205 -45.24257 35204 ft 495 kts 82°
2026-05-08 03:04 64.76143 -45.08193 35207 ft 495 kts 82°
2026-05-08 03:04 64.77059 -44.92222 35188 ft 495 kts 82°
2026-05-08 03:05 64.77952 -44.76306 35206 ft 495 kts 82°
2026-05-08 03:05 64.78833 -44.60298 35216 ft 495 kts 82°
2026-05-08 03:06 64.79703 -44.44169 35210 ft 495 kts 82°
2026-05-08 03:06 64.80544 -44.28262 35210 ft 495 kts 82°
2026-05-08 03:07 64.81373 -44.12232 35216 ft 495 kts 83°
2026-05-08 03:07 64.82185 -43.96181 35221 ft 495 kts 82°
2026-05-08 03:08 64.82980 -43.80120 35215 ft 496 kts 83°
2026-05-08 03:08 64.83760 -43.64017 35213 ft 496 kts 83°
2026-05-08 03:09 64.84521 -43.47900 35212 ft 496 kts 83°
2026-05-08 03:09 64.85265 -43.31799 35204 ft 496 kts 83°
2026-05-08 03:10 64.85992 -43.15666 35209 ft 496 kts 83°
2026-05-08 03:10 64.86701 -42.99550 35227 ft 496 kts 83°
2026-05-08 03:11 64.87393 -42.83385 35208 ft 496 kts 83°
2026-05-08 03:11 64.88068 -42.67220 35196 ft 497 kts 83°
2026-05-08 03:12 64.88726 -42.51031 35192 ft 497 kts 83°
2026-05-08 03:12 64.89367 -42.34835 35192 ft 497 kts 84°
2026-05-08 03:13 64.89986 -42.18745 35178 ft 496 kts 84°
2026-05-08 03:13 64.90491 -42.05229 35182 ft 494 kts 84°
2026-05-08 03:14 64.91079 -41.89093 35189 ft 495 kts 84°
2026-05-08 03:14 64.91651 -41.72908 35212 ft 496 kts 84°
2026-05-08 03:15 64.92204 -41.56730 35214 ft 495 kts 84°
2026-05-08 03:15 64.92741 -41.40529 35212 ft 496 kts 84°
2026-05-08 03:16 64.93257 -41.24420 35211 ft 496 kts 84°
2026-05-08 03:16 64.93759 -41.08219 35193 ft 496 kts 84°
2026-05-08 03:17 64.94242 -40.92000 35216 ft 496 kts 84°
2026-05-08 03:17 64.94709 -40.75766 35202 ft 494 kts 84°
2026-05-08 03:18 64.95156 -40.59599 35198 ft 494 kts 84°
2026-05-08 03:18 64.95586 -40.43410 35200 ft 494 kts 85°
2026-05-08 03:19 64.95998 -40.27221 35200 ft 494 kts 85°
2026-05-08 03:19 64.96393 -40.11030 35205 ft 494 kts 85°
2026-05-08 03:20 64.96770 -39.94835 35235 ft 494 kts 85°
2026-05-08 03:20 64.97130 -39.78592 35203 ft 496 kts 85°
2026-05-08 03:21 64.97473 -39.62348 35209 ft 496 kts 85°
2026-05-08 03:21 64.97798 -39.46088 35209 ft 494 kts 85°
2026-05-08 03:22 64.98104 -39.29902 35215 ft 492 kts 86°
2026-05-08 03:22 64.98393 -39.13750 35216 ft 493 kts 86°
2026-05-08 03:23 64.98664 -38.97571 35220 ft 493 kts 86°
2026-05-08 03:23 64.98917 -38.81409 35222 ft 491 kts 86°
2026-05-08 03:24 64.99152 -38.65281 35219 ft 491 kts 86°
2026-05-08 03:24 64.99370 -38.49139 35224 ft 491 kts 86°
2026-05-08 03:25 64.99570 -38.32988 35225 ft 491 kts 87°
2026-05-08 03:25 64.99752 -38.16960 35222 ft 492 kts 87°
2026-05-08 03:26 64.99918 -38.00835 35230 ft 489 kts 87°
2026-05-08 03:26 65.00065 -37.84764 35246 ft 487 kts 87°
2026-05-08 03:27 65.00195 -37.68802 35228 ft 485 kts 87°
2026-05-08 03:27 65.00307 -37.52846 35231 ft 486 kts 88°
2026-05-08 03:28 65.00403 -37.36876 35235 ft 486 kts 88°
2026-05-08 03:28 65.00485 -37.20917 35236 ft 486 kts 88°
2026-05-08 03:29 65.00553 -37.04948 35231 ft 486 kts 88°
2026-05-08 03:29 65.00607 -36.88964 35261 ft 486 kts 88°
2026-05-08 03:30 65.00657 -36.65163 35238 ft 481 kts 88°
2026-05-08 03:31 65.00671 -36.33642 35240 ft 481 kts 88°
2026-05-08 03:32 65.00641 -36.09944 35251 ft 481 kts 88°
2026-05-08 03:32 65.00600 -35.94138 35250 ft 481 kts 89°
2026-05-08 03:33 65.00152 -35.78334 35253 ft 482 kts 93°
2026-05-08 03:33 64.99648 -35.62536 35252 ft 482 kts 92°
2026-05-08 03:34 64.99184 -35.46739 35254 ft 482 kts 92°
2026-05-08 03:34 64.98714 -35.30973 35250 ft 480 kts 92°
2026-05-08 03:35 64.98227 -35.15247 35256 ft 480 kts 92°
2026-05-08 03:35 64.97724 -34.99509 35257 ft 480 kts 92°
2026-05-08 03:36 64.97205 -34.83792 35278 ft 480 kts 92°
2026-05-08 03:36 64.96671 -34.68117 35259 ft 477 kts 92°
2026-05-08 03:37 64.96122 -34.52505 35261 ft 478 kts 92°
2026-05-08 03:37 64.95556 -34.36875 35260 ft 478 kts 93°
2026-05-08 03:38 64.94974 -34.21258 35260 ft 478 kts 93°
2026-05-08 03:38 64.94376 -34.05649 35265 ft 477 kts 92°
2026-05-08 03:39 64.93766 -33.90178 35264 ft 477 kts 92°
2026-05-08 03:39 64.93136 -33.74594 35288 ft 477 kts 92°
2026-05-08 03:40 64.92490 -33.59037 35274 ft 476 kts 92°
2026-05-08 03:40 64.91829 -33.43492 35265 ft 477 kts 92°
2026-05-08 03:41 64.91150 -33.27951 35273 ft 477 kts 92°
2026-05-08 03:41 64.90456 -33.12419 35267 ft 477 kts 93°
2026-05-08 03:42 64.89745 -32.96894 35267 ft 477 kts 93°
2026-05-08 03:42 64.89019 -32.81378 35271 ft 477 kts 92°
2026-05-08 03:43 64.88277 -32.65876 35293 ft 477 kts 92°
2026-05-08 03:43 64.87516 -32.50344 35272 ft 478 kts 92°
2026-05-08 03:44 64.86739 -32.34814 35272 ft 478 kts 92°
2026-05-08 03:44 64.85945 -32.19287 35271 ft 478 kts 92°
2026-05-08 03:45 64.85136 -32.03776 35278 ft 478 kts 92°
2026-05-08 03:45 64.84310 -31.88263 35278 ft 478 kts 92°
2026-05-08 03:46 64.83468 -31.72771 35274 ft 478 kts 93°
2026-05-08 03:46 64.82611 -31.57276 35298 ft 479 kts 91°
2026-05-08 03:47 64.81736 -31.41801 35276 ft 478 kts 92°
2026-05-08 03:47 64.80844 -31.26318 35276 ft 478 kts 92°
2026-05-08 03:48 64.79938 -31.10868 35276 ft 478 kts 92°
2026-05-08 03:48 64.79015 -30.95406 35274 ft 479 kts 92°
2026-05-08 03:49 64.78076 -30.79952 35273 ft 479 kts 92°
2026-05-08 03:49 64.77120 -30.64506 35279 ft 479 kts 92°
2026-05-08 03:50 64.76149 -30.49085 35281 ft 478 kts 92°
2026-05-08 03:50 64.75170 -30.33798 35278 ft 478 kts 92°
2026-05-08 03:51 64.74168 -30.18408 35272 ft 478 kts 92°
2026-05-08 03:51 64.73150 -30.03039 35279 ft 478 kts 92°
2026-05-08 03:52 64.72115 -29.87661 35280 ft 478 kts 92°
2026-05-08 03:52 64.71066 -29.72307 35276 ft 478 kts 93°
2026-05-08 03:53 64.69998 -29.56949 35336 ft 478 kts 92°
2026-05-08 03:53 64.68914 -29.41571 35279 ft 480 kts 92°
2026-05-08 03:54 64.67809 -29.26160 35274 ft 481 kts 92°
2026-05-08 03:54 64.66691 -29.10776 35276 ft 481 kts 92°
2026-05-08 03:55 64.65555 -28.95415 35273 ft 480 kts 92°
2026-05-08 03:55 64.64406 -28.80074 35283 ft 480 kts 92°
2026-05-08 03:56 64.63240 -28.64754 35282 ft 480 kts 92°
2026-05-08 03:56 64.62059 -28.49429 35325 ft 481 kts 92°
2026-05-08 03:57 64.60856 -28.34071 35275 ft 481 kts 92°
2026-05-08 03:57 64.59640 -28.18743 35274 ft 482 kts 92°
2026-05-08 03:58 64.58405 -28.03400 35276 ft 482 kts 92°
2026-05-08 03:58 64.57165 -27.88170 35286 ft 482 kts 92°
2026-05-08 03:59 64.55898 -27.72772 35277 ft 481 kts 92°
2026-05-08 03:59 64.54633 -27.57593 35277 ft 481 kts 92°
2026-05-08 04:00 64.53347 -27.42330 35301 ft 480 kts 92°
2026-05-08 04:00 64.52050 -27.27129 35279 ft 480 kts 92°
2026-05-08 04:01 64.50741 -27.11975 35001 ft 474 kts 92°
2026-05-08 04:01 64.50001 -27.04483 34309 ft 484 kts 99°
2026-05-08 04:01 64.48711 -26.97127 33365 ft 496 kts 104°
2026-05-08 04:01 64.47415 -26.89714 32583 ft 496 kts 103°
2026-05-08 04:02 64.46140 -26.82326 32114 ft 490 kts 103°
2026-05-08 04:02 64.44883 -26.75051 31798 ft 482 kts 103°
2026-05-08 04:02 64.43645 -26.67907 31389 ft 475 kts 102°
2026-05-08 04:02 64.42414 -26.60823 30822 ft 474 kts 103°
2026-05-08 04:03 64.41182 -26.53765 30282 ft 472 kts 103°
2026-05-08 04:03 64.38737 -26.39834 29316 ft 461 kts 103°
2026-05-08 04:03 64.37926 -26.35227 28941 ft 456 kts 103°
2026-05-08 04:04 64.36736 -26.28500 28443 ft 448 kts 103°
2026-05-08 04:04 64.35564 -26.21892 28006 ft 440 kts 103°
2026-05-08 04:04 64.34415 -26.15436 27554 ft 432 kts 103°
2026-05-08 04:04 64.33277 -26.09063 27108 ft 425 kts 103°
2026-05-08 04:05 64.32158 -26.02819 26668 ft 419 kts 103°
2026-05-08 04:05 64.31053 -25.96668 26251 ft 412 kts 103°
2026-05-08 04:05 64.29960 -25.90605 25837 ft 406 kts 103°
2026-05-08 04:05 64.28879 -25.84628 25438 ft 401 kts 103°
2026-05-08 04:06 64.27813 -25.78752 25049 ft 396 kts 103°
2026-05-08 04:06 64.26758 -25.72951 24642 ft 391 kts 103°
2026-05-08 04:06 64.25712 -25.67220 24249 ft 386 kts 104°
2026-05-08 04:06 64.24677 -25.61561 23857 ft 382 kts 104°
2026-05-08 04:07 64.23652 -25.55977 23413 ft 377 kts 104°
2026-05-08 04:07 64.22638 -25.50467 23019 ft 371 kts 104°
2026-05-08 04:07 64.21651 -25.45119 22659 ft 366 kts 104°
2026-05-08 04:07 64.20645 -25.39678 22284 ft 364 kts 105°
2026-05-08 04:08 64.19659 -25.34363 21922 ft 361 kts 105°
2026-05-08 04:08 64.18690 -25.29153 21568 ft 359 kts 105°
2026-05-08 04:08 64.17711 -25.23905 21206 ft 357 kts 105°
2026-05-08 04:08 64.16737 -25.18695 20848 ft 354 kts 106°
2026-05-08 04:09 64.15766 -25.13518 20488 ft 352 kts 106°
2026-05-08 04:09 64.14788 -25.08311 20131 ft 350 kts 106°
2026-05-08 04:09 64.13840 -25.03273 19791 ft 348 kts 107°
2026-05-08 04:09 64.12881 -24.98186 19435 ft 347 kts 107°
2026-05-08 04:10 64.11925 -24.93128 19092 ft 345 kts 107°
2026-05-08 04:10 64.10978 -24.88097 18745 ft 343 kts 105°
2026-05-08 04:10 64.10174 -24.82971 18310 ft 342 kts 104°
2026-05-08 04:10 64.09378 -24.77875 17943 ft 339 kts 104°
2026-05-08 04:11 64.08579 -24.72831 17604 ft 336 kts 105°
2026-05-08 04:11 64.07783 -24.67843 17267 ft 333 kts 105°
2026-05-08 04:11 64.06989 -24.62890 16928 ft 330 kts 105°
2026-05-08 04:11 64.06202 -24.57992 16596 ft 327 kts 105°
2026-05-08 04:12 64.05417 -24.53130 16269 ft 325 kts 105°
2026-05-08 04:12 64.04638 -24.48311 15933 ft 322 kts 106°
2026-05-08 04:12 64.03863 -24.43529 15598 ft 320 kts 106°
2026-05-08 04:12 64.03092 -24.38787 15271 ft 318 kts 106°
2026-05-08 04:13 64.02323 -24.34072 14938 ft 316 kts 107°
2026-05-08 04:13 64.01561 -24.29405 14611 ft 314 kts 107°
2026-05-08 04:13 64.00799 -24.24756 14296 ft 312 kts 107°
2026-05-08 04:13 64.00042 -24.20144 13976 ft 310 kts 107°
2026-05-08 04:14 63.99284 -24.15538 13596 ft 309 kts 107°
2026-05-08 04:14 63.98531 -24.10974 13258 ft 306 kts 107°
2026-05-08 04:14 63.97784 -24.06452 12938 ft 304 kts 107°
2026-05-08 04:14 63.97043 -24.01978 12625 ft 301 kts 107°
2026-05-08 04:15 63.96306 -23.97532 12268 ft 299 kts 107°
2026-05-08 04:15 63.95574 -23.93118 11949 ft 297 kts 108°
2026-05-08 04:15 63.94846 -23.88739 11652 ft 294 kts 107°
2026-05-08 04:15 63.94125 -23.84412 11351 ft 292 kts 107°
2026-05-08 04:16 63.93408 -23.80122 11053 ft 289 kts 107°
2026-05-08 04:16 63.92694 -23.75854 10754 ft 287 kts 107°
2026-05-08 04:16 63.91984 -23.71627 10464 ft 285 kts 107°
2026-05-08 04:16 63.91288 -23.67489 10301 ft 277 kts 107°
2026-05-08 04:17 63.90607 -23.63441 10089 ft 272 kts 107°
2026-05-08 04:17 63.89927 -23.59414 9767 ft 276 kts 107°
2026-05-08 04:17 63.89235 -23.55325 9448 ft 280 kts 107°
2026-05-08 04:17 63.88541 -23.51234 9130 ft 282 kts 107°
2026-05-08 04:18 63.87824 -23.47017 8832 ft 282 kts 107°
2026-05-08 04:18 63.87128 -23.42929 8529 ft 281 kts 107°
2026-05-08 04:18 63.86415 -23.38756 8221 ft 279 kts 107°
2026-05-08 04:18 63.85728 -23.34738 7928 ft 277 kts 107°
2026-05-08 04:19 63.85033 -23.30684 7622 ft 275 kts 107°
2026-05-08 04:19 63.84342 -23.26662 7327 ft 273 kts 107°
2026-05-08 04:19 63.83654 -23.22663 7028 ft 272 kts 107°
2026-05-08 04:19 63.82963 -23.18660 6631 ft 274 kts 107°
2026-05-08 04:20 63.82264 -23.14620 6237 ft 277 kts 108°
2026-05-08 04:20 63.81561 -23.10563 5879 ft 277 kts 108°
2026-05-08 04:20 63.80859 -23.06520 5562 ft 275 kts 108°
2026-05-08 04:20 63.80161 -23.02510 5247 ft 273 kts 108°
2026-05-08 04:21 63.79468 -22.98534 4954 ft 270 kts 108°
2026-05-08 04:21 63.78781 -22.94596 4647 ft 268 kts 108°
2026-05-08 04:21 63.78105 -22.90727 4493 ft 260 kts 107°
2026-05-08 04:21 63.77450 -22.86987 4374 ft 251 kts 107°
2026-05-08 04:22 63.77050 -22.83301 4209 ft 234 kts 82°
2026-05-08 04:22 63.77402 -22.79881 4073 ft 217 kts 65°
2026-05-08 04:22 63.77873 -22.76708 3970 ft 208 kts 65°
2026-05-08 04:22 63.78333 -22.73686 3854 ft 199 kts 64°
2026-05-08 04:23 63.78796 -22.70716 3754 ft 203 kts 64°
2026-05-08 04:23 63.79257 -22.67774 3721 ft 190 kts 64°
2026-05-08 04:23 63.79686 -22.65056 3598 ft 179 kts 63°
2026-05-08 04:23 63.80195 -22.62607 3350 ft 165 kts 41°
2026-05-08 04:24 63.81132 -22.61400 3077 ft 152 kts
2026-05-08 04:24 63.82160 -22.61133 2866 ft 146 kts
2026-05-08 04:24 63.83172 -22.60823 2722 ft 145 kts
2026-05-08 04:24 63.84113 -22.60648 2566 ft 132 kts
2026-05-08 04:25 63.85041 -22.60584 2433 ft 135 kts
2026-05-08 04:25 63.85987 -22.60560 2262 ft 133 kts 360°
2026-05-08 04:25 63.86899 -22.60552 2099 ft 130 kts
2026-05-08 04:25 63.87800 -22.60544 1939 ft 129 kts 360°
2026-05-08 04:26 63.88689 -22.60546 1776 ft 128 kts 359°
2026-05-08 04:26 63.89573 -22.60547 1596 ft 129 kts 359°
2026-05-08 04:26 63.90487 -22.60546 1417 ft 130 kts 360°
2026-05-08 04:26 63.91371 -22.60547 1226 ft 128 kts
2026-05-08 04:27 63.92263 -22.60564 1043 ft 128 kts 359°
2026-05-08 04:27 63.93142 -22.60555 855 ft 126 kts
2026-05-08 04:27 63.94029 -22.60505 683 ft 129 kts
2026-05-08 04:27 63.94958 -22.60552 543 ft 135 kts 359°
2026-05-08 04:28 63.95892 -22.60539 311 ft 132 kts
2026-05-08 04:28 63.96801 -22.60550 153 ft 126 kts
2026-05-08 04:28 63.97553 -22.60544 151 ft 79 kts 359°
2026-05-08 04:28 63.97919 -22.60547 150 ft 32 kts 359°
2026-05-08 04:29 63.98124 -22.60631 152 ft 31 kts 335°
2026-05-08 04:29 63.98316 -22.60869 153 ft 31 kts 334°
2026-05-08 04:29 63.98528 -22.60939 157 ft 31 kts 358°
2026-05-08 04:29 63.98737 -22.60951 161 ft 29 kts 357°
2026-05-08 04:30 63.98935 -22.60950 166 ft 28 kts
2026-05-08 04:30 63.99116 -22.60942 170 ft 18 kts 359°
2026-05-08 04:30 63.99172 -22.61057 171 ft 8 kts 278°
2026-05-08 04:30 63.99173 -22.61223 170 ft 15 kts 269°
2026-05-08 04:31 63.99171 -22.61519 169 ft 21 kts 270°
2026-05-08 04:31 63.99173 -22.61872 168 ft 23 kts 271°
2026-05-08 04:31 63.99217 -22.61991 168 ft 11 kts 356°
2026-05-08 04:31 63.99316 -22.61992 168 ft 17 kts
2026-05-08 04:32 63.99380 -22.62068 168 ft 9 kts 320°
2026-05-08 04:32 63.99386 -22.62167 168 ft 2 kts 235°
2026-05-08 04:32 63.99373 -22.62210 168 ft 4 kts 235°
2026-05-08 04:32 63.99372 -22.62214 168 ft 0 kts 235°